Location: Astronomy Club of Akron Observatory
(40.9700°N, 81.5606°W)
Time: 10:29:02
(UTC-04:00)

Daily predictions for brighter satellites

Satellite Brightness Start Highest point End
(mag) Time Altitude Azimuth Time Altitude Azimuth Time Altitude Azimuth
Cosmos 1151 Rocket 3.2 21:31:28 10° N 21:35:44 57° E 21:40:01 10° SSE
Cosmos 1437 3.4 21:33:26 10° SSE 21:36:29 37° E 21:39:33 10° NNE
H-2A R/B 4.2 21:34:39 10° SSW 21:38:14 38° W 21:41:48 10° NNW
ATLAS 2AS CENTAUR R/B 4.4 21:35:00 10° SE 21:38:35 14° ESE 21:42:16 10° ENE
COSMOS 2428 3.4 21:38:48 10° N 21:44:11 42° ENE 21:49:33 10° SE
USA 186 3.9 21:43:08 10° SW 21:44:40 16° W 21:46:14 10° NW
Cosmos 1437 Rocket 3.0 21:40:56 10° NNW 21:44:44 71° W 21:48:34 10° S
ARGOS 4.5 21:41:20 10° ESE 21:45:37 25° ENE 21:49:54 10° NNE
ERS-1 Rocket 3.2 21:41:44 10° S 21:46:46 78° WSW 21:51:50 10° NNW
Cosmos 2219 Rocket 3.6 21:43:36 10° N 21:48:05 24° NE 21:52:32 10° ESE
Envisat 3.1 21:43:26 10° SSE 21:48:27 66° ENE 21:53:30 10° N
Cosmos 2266 Rocket 4.0 21:42:58 10° S 21:49:15 80° E 21:55:27 10° N
Cosmos 1939 Rocket 2.8 21:45:40 10° SSE 21:49:36 80° ENE 21:53:29 10° N
ERBS 4.3 21:49:49 11° SE 21:50:48 12° ESE 21:52:04 10° E
Cosmos 1805 Rocket 4.3 21:46:45 10° SSE 21:50:50 36° E 21:54:54 10° NNE
Terra 4.1 21:50:23 10° ENE 21:51:20 11° ENE 21:52:19 10° NE
Cosmos 2315 Rocket 4.1 21:52:46 10° N 21:58:56 61° E 22:05:02 10° SSE
Cosmos 1726 3.3 21:57:52 10° NNE 22:01:11 28° ENE 22:03:46 14° SE
NOSS 3-1 (C) 3.4 21:55:44 10° SSW 22:01:26 60° ESE 22:07:44 10° NE
SL-23 DEB 4.0 21:56:34 10° NW 22:02:04 90° NNE 22:05:00 15° SE
Cosmos 2112 Rocket 4.0 21:58:05 10° NNW 22:03:22 88° ENE 22:08:34 10° SSE
OTV 4 2.3 22:02:25 10° S 22:04:06 14° SSE 22:04:06 14° SSE
OAO 2 Rocket 4.2 21:59:31 10° SW 22:04:12 32° SSE 22:08:54 10° ESE
CZ-4 SHROUD 3.3 22:02:06 13° SSE 22:04:47 59° ENE 22:07:53 10° N
Cosmos 2237 4.4 22:00:07 10° NNW 22:05:50 66° ENE 22:10:48 14° SE
Cosmos 1937 Rocket 4.4 22:02:46 10° SSE 22:07:14 29° E 22:11:42 10° NE
H-2A R/B 2.6 22:03:21 10° S 22:07:49 62° WSW 22:12:19 10° NNW
Cosmos 1707 Rocket 3.9 22:05:31 10° N 22:09:46 50° E 22:13:15 15° SSE
Cosmos 1666 Rocket 3.9 22:09:24 11° SSE 22:13:30 47° E 22:17:46 10° NNE
Cosmos 2298 Rocket 4.1 22:08:25 10° S 22:13:36 57° ESE 22:18:48 10° NNE
Cosmos 1328 3.9 22:10:55 10° S 22:14:52 78° W 22:18:50 10° N
Tiangong 1 1.0 22:12:19 10° WSW 22:15:23 61° SSE 22:18:27 10° E
Cosmos 2219 3.3 22:09:44 10° SSW 22:15:29 87° WNW 22:21:17 10° NNE
Meteor 1-4 Rocket 3.6 22:15:51 10° N 22:19:15 32° ENE 22:21:09 20° SE
Cosmos 2237 Rocket 3.4 22:16:19 10° N 22:21:16 29° NE 22:25:15 14° ESE
Cosmos 2333 4.3 22:17:34 10° NNW 22:23:17 68° ENE 22:27:36 18° SE
DELTA 2 R/B (1) 4.4 22:20:12 10° W 22:25:15 37° SSW 22:28:40 18° SSE
Cosmos 1271 Rocket 3.5 22:22:59 10° N 22:26:35 37° ENE 22:28:33 22° SE
MetOp-B 4.2 22:23:58 13° SSE 22:28:47 86° WSW 22:34:11 10° NNW
CZ-4B R/B 3.5 22:25:33 10° NNE 22:30:50 69° ESE 22:35:58 10° S
Cosmos 2360 Rocket 3.3 22:26:40 10° NW 22:31:53 39° WSW 22:37:05 10° S
Cosmos 1745 Rocket 4.4 22:27:24 16° SSE 22:31:58 44° E 22:37:46 10° NNE
NOSS 0 Rocket 4.4 22:27:16 10° NNW 22:33:14 49° ENE 22:37:22 20° SE
Cosmos 1703 3.7 22:32:27 23° SSE 22:34:24 41° E 22:38:06 10° NNE
SL-14 R/B 3.2 22:31:35 13° S 22:35:02 82° E 22:39:05 10° N
NOAA 11 4.3 22:32:40 19° SSE 22:36:31 64° ENE 22:41:55 10° N
Meteor 1-27 4.3 22:33:04 10° N 22:38:47 84° W 22:43:18 16° S
H-2A R/B 2.9 22:36:57 20° ESE 22:40:04 38° ENE 22:45:03 10° N
Cosmos 1626 3.3 22:41:26 24° ESE 22:42:05 25° E 22:45:12 10° NE
SPOT 5 3.8 22:41:59 11° S 22:46:12 42° W 22:50:48 10° NNW
Delta 2 Rocket 3.7 22:45:16 10° WSW 22:48:27 30° S 22:48:40 30° S
Cosmos 1898 Rocket 3.6 22:46:31 10° SSW 22:51:41 77° WNW 22:56:56 10° NNE
YAOGAN 6 3.4 22:50:10 19° SSW 22:52:27 46° W 22:55:56 10° NNW
SPOT 1/Viking Rocket 3.7 22:48:50 20° S 22:52:27 74° WSW 22:57:38 10° NNW
Lacrosse 4 Rocket 3.5 22:53:01 10° N 22:56:12 19° NE 22:58:32 13° E
Cosmos 2227 Rocket 2.3 22:55:43 18° S 22:59:46 57° ESE 23:05:20 10° NNE
Cosmos 1300 4.1 22:57:41 10° NNW 23:01:13 35° W 23:03:49 16° SSW
NOSS 3-1 (A) 3.8 23:00:09 10° SW 23:06:00 65° NW 23:12:33 10° NNE
Cosmos 292 Rocket 3.9 23:01:38 10° NNW 23:06:23 70° WSW 23:08:40 30° S
Cosmos 2242 Rocket 3.9 23:02:28 10° NNW 23:06:55 65° W 23:09:20 26° S
Sich 1 3.9 23:03:03 11° SSW 23:07:07 49° W 23:11:24 10° N
Cosmos 1862 Rocket 3.7 23:04:26 10° N 23:08:43 57° E 23:10:03 39° SE
CARTOSAT-1 3.7 23:08:07 37° SE 23:09:36 60° ENE 23:13:51 10° N
COSMOS 2455 3.8 23:05:08 10° NNW 23:10:45 38° NE 23:14:03 22° ESE
Cosmos 1633 Rocket 4.0 23:08:22 12° SSW 23:12:13 45° W 23:16:27 10° N
Landsat 7 3.7 23:10:19 33° SSE 23:12:28 90° NNE 23:17:15 10° NNW
USA 245 4.3 23:15:04 19° WSW 23:15:19 19° W 23:17:06 10° NW
SL-16 R/B 3.2 23:10:22 10° N 23:15:33 35° ENE 23:18:12 23° ESE
SAR-Lupe-2 3.8 23:15:11 46° ESE 23:15:40 51° ENE 23:19:10 10° N
Cosmos 2333 Rocket 2.2 23:10:58 10° NNW 23:16:46 88° ENE 23:19:24 34° SSE
Cosmos 1346 3.0 23:20:05 75° WSW 23:20:12 78° W 23:23:15 10° N
FALCON 9 R/B 3.9 22:55:45 10° W 23:22:21 64° S 23:27:16 24° ESE
Cosmos 1455 2.1 23:19:56 10° N 23:23:45 88° E 23:24:28 58° S
BREEZE-M DEB (TANK) 3.1 23:22:44 10° NW 23:24:46 41° NNE 23:25:19 36° ENE
ARGOS 4.0 23:22:16 21° SSW 23:25:33 44° W 23:30:44 10° NNW
Cosmos 2297 Rocket 2.1 23:23:48 30° S 23:26:36 67° ESE 23:32:14 10° NNE
ERBS 2.8 23:23:43 10° SW 23:27:12 63° NW 23:30:40 10° NE
ATLAS 2AS CENTAUR R/B 2.9 23:20:45 10° SSW 23:28:10 75° ESE 23:36:13 10° NE
COSMOS 2428 4.2 23:23:29 10° NW 23:28:12 28° WSW 23:31:38 16° SSW
Terra 1.7 23:26:42 42° SSE 23:28:19 90° SW 23:33:07 10° NNW
DMSP B5D2-2 4.0 23:26:32 10° NNE 23:31:47 84° ESE 23:34:06 35° S
Cosmos 2219 Rocket 2.6 23:26:55 10° NNW 23:32:19 52° WSW 23:34:43 31° SSW
Spot 4 3.8 23:34:28 46° SSE 23:35:55 84° ENE 23:40:48 10° NNW
Cosmos 1869 Rocket 4.3 23:36:29 36° E 23:36:39 36° E 23:40:46 10° NNE
IGS 5A 3.4 23:36:25 54° S 23:37:18 77° WSW 23:41:30 10° NNW
Cosmos 468 4.5 23:36:35 10° NNW 23:41:58 80° ENE 23:43:31 47° SSE
ATLAS 3B R/B 2.9 23:35:12 10° NNW 23:42:12 65° NE 23:45:16 33° ESE
Cosmos 1900 4.4 23:40:11 10° NNW 23:45:08 66° ENE 23:46:21 48° ESE
OAO 2 Rocket 3.8 23:43:31 10° WSW 23:48:06 43° SSW 23:48:06 43° SSW
COS B Rocket 3.8 23:45:56 10° NNE 23:49:36 46° E 23:49:36 46° E
Cosmos 1869 3.7 23:45:58 10° NNW 23:49:56 55° W 23:50:34 48° SW
Tiangong 1 2.4 23:48:57 10° W 23:51:01 36° WNW 23:51:01 36° WNW
Cosmos 1980 4.2 23:47:46 10° NW 23:53:12 49° WSW 23:55:01 36° SSW
ALOS 2 4.4 23:52:44 18° E 23:53:28 19° ENE 23:56:33 10° NNE
